Lid_Strength_Index
2 3 2 3 3 4 4 4 4 4 4 5 6 6 7 7 7 7 7 7 8 8
3 2 3 4 4 4 4 4 4 5 5 6 6 6 7 8 8 8 8 8 8 8
3 4 4 4 4 5 5 5 6 6 6 7 7 7 7 7 7 8 8 8 8 8
4 4 4 5 5 5 6 6 6 6 7 7 8 7 8 8 8 8 8 8 8 8
6 5 6 5 6 7 7 6 7 7 8 8 8 8 8 8 8 8 8 8 8 8
5 6 6 7 7 6 7 7 7 8 8 8 8 8 8 8 8 7 7 7 7 7
6 6 7 7 7 7 8 8 8 8 8 8 8 8 8 7 6 6 7 6 6 7
5 6 6 7 7 8 8 8 8 8 8 8 8 7 6 5 6 6 5 5 4 5
6 6 6 6 7 8 8 9 8 8 8 8 8 8 6 5 6 6 6 6 6 5
6 6 5 6 8 8 8 8 9 9 8 8 8 9 8 5 6 6 6 6 7 6
7 7 6 6 7 7 7 7 9 9 9 8 8 9 9 7 6 6 6 7 6 6
7 7 7 7 8 8 7 6 6 8 8 8 9 10 10 9 8 8 7 6 6 7
6 6 7 7 8 7 8 7 6 6 7 8 9 10 10 10 8 8 8 8 7 7
6 6 7 6 8 8 9 7 8 7 6 7 9 9 10 11 8 7 8 8 8 8